Flag for Cambodia Weather past 2 weeks in Phnom Penh, Cambodia

Now
93 °F

Scattered clouds.


Feels Like: 96 °F
Forecast: 81 / 100 °F
Wind: 10 mph from South

Location: Phnom-Penh / Pochentong


UV Index: 10 (Very high)

Visibility: N/A


Pressure: 29.65 "Hg

Humidity: 41%

Dew point: 66 °F

Location of Phnom PenhLocation

Historic Weather in Phnom Penh

°F

Phnom Penh temperature yesterday

Maximum temperature yesterday: 95 °F (at 1:30 PM)
Minimum temperature yesterday: 79 °F (at 6:00 AM)
Average temperature yesterday: 89 °F

Past Weeks' High & Low Weather Summary

 TemperatureHumidityPressure
High97 °F (Apr 9, 3:30 PM)89% (Apr 5, 11:00 PM)29.95 "Hg (Apr 5, 11:00 PM)
Low73 °F (Apr 5, 11:00 PM)36% (Apr 20, 4:00 PM)29.65 "Hg (Apr 12, 3:30 PM)
Average86 °F64%29.79 "Hg
* Reported Apr 5 4:00 PM — Apr 20 4:30 PM, Phnom Penh, Weather by CustomWeather, © 2014

Note: Actual official high and low records may vary slightly from our data, if they occured in-between our weather recording intervals... More about our weather records

Advertising

Historic Weather Conditions — Data for Previous 24 hours

 ConditionsComfort  
Time TempWeatherWind HumidityBarometerVisibility
4:30 PM
Apr 20
95 °FScattered clouds.10 mph36%29.65 "HgN/A
4:00 PM95 °FScattered clouds.7 mph36%29.65 "HgN/A
3:30 PM95 °FScattered clouds.8 mph41%29.68 "HgN/A
3:00 PM95 °FScattered clouds.10 mph39%29.68 "HgN/A
2:30 PM95 °FScattered clouds.10 mph44%29.68 "HgN/A
2:00 PM95 °FScattered clouds.8 mph41%29.71 "HgN/A
1:30 PM95 °FScattered clouds.8 mph44%29.71 "HgN/A
1:00 PM95 °FScattered clouds.9 mph44%29.74 "HgN/A
12:30 PM93 °FScattered clouds.10 mph47%29.74 "HgN/A
12:00 PM93 °FScattered clouds.10 mph49%29.77 "HgN/A
11:30 AM91 °FScattered clouds.6 mph52%29.77 "HgN/A
11:00 AM91 °FScattered clouds.9 mph52%29.80 "HgN/A
10:30 AM90 °FScattered clouds.7 mph55%29.80 "HgN/A
9:30 AM88 °FPassing clouds.7 mph62%29.80 "HgN/A
9:00 AM88 °FSunny.5 mph62%29.80 "Hg10 mi
8:30 AM86 °FSunny.6 mph66%29.80 "Hg10 mi
8:00 AM84 °FPassing clouds.5 mph70%29.80 "HgN/A
7:30 AM82 °FPassing clouds.6 mph70%29.80 "HgN/A
7:00 AM81 °FPassing clouds.6 mph74%29.77 "HgN/A
6:30 AM81 °FPassing clouds.6 mph74%29.77 "HgN/A
12:30 AM82 °FPassing clouds.7 mph74%29.74 "HgN/A
12:00 AM84 °FPassing clouds.6 mph70%29.74 "HgN/A
11:30 PM
Apr 19
84 °FPassing clouds.6 mph70%29.77 "HgN/A
11:00 PM84 °FPassing clouds.5 mph70%29.77 "HgN/A
10:30 PM84 °FPassing clouds.3 mph70%29.77 "HgN/A
10:00 PM86 °FPassing clouds.6 mph66%29.77 "HgN/A
9:30 PM84 °FPassing clouds.6 mph70%29.74 "HgN/A
9:00 PM86 °FPassing clouds.6 mph62%29.74 "HgN/A
8:30 PM88 °FPassing clouds.7 mph59%29.71 "HgN/A
8:00 PM88 °FPassing clouds.5 mph59%29.71 "HgN/A
7:30 PM90 °FPassing clouds.6 mph59%29.71 "HgN/A
7:00 PM90 °FPassing clouds.7 mph55%29.71 "HgN/A
6:30 PM91 °FPassing clouds.12 mph49%29.68 "HgN/A
6:00 PM91 °FScattered clouds.9 mph49%29.68 "HgN/A
Weather by CustomWeather, © 2014

See weather overview